{"data":{"norad_id":43711,"intl_designator":"2018-094B","name":"SHIYAN-6 01 (SY-6 01)","alt_names":[],"object_type":"PAYLOAD","status":"ACTIVE","operator":null,"country":"PRC","launch_date":"2018-11-19","launch_site_code":"JSC","launch_vehicle":null,"mission":null,"orbit_class":"UNKNOWN","rcs_meters":null,"size_class":null,"mass_kg":null,"dimensions":null,"purposes":[],"wikipedia_slug":null,"has_3d_model":false,"image_url":null,"decayed_at":null,"tle_current":{"epoch":"2026-09-20T04:29:40.075296Z","epoch_age_seconds":82237,"freshness":"FRESH","line1":"1 43711U 18094B   26263.18726939  .00003197  00000+0  11107-3 0  9994","line2":"2 43711  97.3605 276.4557 0013053 163.4175 196.7495 15.30413990436013","mean_motion":15.3041399,"eccentricity":0.0013053,"inclination_deg":97.3605,"raan_deg":276.4557,"arg_perigee_deg":163.4175,"mean_anomaly_deg":196.7495,"bstar":0.00011107,"rev_number":43601,"period_min":94.092187434852,"perigee_km":465.6313617509,"apogee_km":483.52105485249,"semimajor_km":6852.7132083017,"source":"CELESTRAK","updated_at":"2026-09-20T09:00:14.397465Z"}}}